CZ-4C DEB, 43601

Orbit data source: Space-Track

CZ-4C DEB, 43601 is space debris in SSO originally from a launch on Tue, 09 Aug 2016 UTC launched from the Taiyaun Space Center, China (TSC). Debris objects in space refer to the collection of defunct objects orbiting the Earth. Examples of debris include non-operational satellites, rocket bodies, and fragments generated from explosions, collisions, or faulty payload assembly.

Loading next visibility...
Identifier
43601, 2016-049F
Orbit
SSO
Last TLE update
15 hours ago
Origin
Manufacturer
Unknown
Mission
Spacecraft
Bus & Motor
Unknown
Mass
Unknown
Launch date (UTC)
2016-08-09 (9 years ago)
Launch vehicle
Unknown
Launch site
Taiyaun Space Center, China (TSC)
Object type
Payload
Rocket body
Debris
Shape & HBR
Unknown
Radar Cross Section
Small (<0.1 m²)

Expand to show TLE details & history

TLE from 15 hours ago
0 CZ-4C DEB
1 43601U 16049F   25181.76000769  .00005662  00000-0  57576-3 0  9998
2 43601  98.3066 298.5545 0078874 267.1854  92.0333 14.88909508580132
Epoch: 2025-06-30T18:14Z
TLE epoch observation values (Epoch: 2025-06-30T18:14:24.664Z)
Latitude
0.00004°
Longitude
105.88653°
Altitude
606.75 km
Speed
7.555 km/s
True Right ascension
19h 54m 13s
True Declination
0° 00' 00"
Sunlit
Object was in full shadow at epoch
Visualization orbit readout
Latitude
35.25819°
Longitude
100.63557°
Altitude
641.532 km
Speed
7.521 km/s
Apparent Right ascension
16h 06m 59s
Apparent Declination
-1° 23' 20"
Sunlit
Object is in full shadow
Visualization observer readout
Local Sidereal Time
20:33:10
Azimuth
253.371° W
Elevation
16.836°
Doppler factor
1
Orbital elements
Apogee altitude
653.416 km
Perigee altitude
543.362 km
Semi-major axis
6,976.526 km
Eccentricity
0.00789
Inclination
98.3066°
RAAN
298.5545°
Arg. of periapsis
267.1854°
True anomaly
Unknown
Mean anomaly
92.0333°
Eccentric anomaly
Unknown
Mean motion
3.72464 °/min
Orbital period
96.65 mins
BSTAR
0.00057576
Loading maneuver chart data...
Loading SW <> Apogee altitude chart data...
Loading historical data...
Loading historical data...
Loading historical data...
Loading historical data...
Loading historical data...
Loading historical data...
Loading historical data...
Other satellites on launch #49 in the year 2016 (2016-08-09 UTC)

CZ-4C DEB Visibility forecast

Observer location: undefined°, undefined°

Span
Click to sort rows by Start time (UTC) header in descending order
Start Az.
Max El. time (UTC)
Max El. Az.
Max El.
End time (UTC)
End Az.
7 mins2025-07-01 20:37:58.306Z18.349° NNE2025-07-01 20:40:58.306Z134.271° SE44.103°2025-07-01 20:44:58.306Z189.41° SSW
7 mins2025-07-02 07:27:58.306Z146.893° SSE2025-07-02 07:30:58.306Z95.679° ESE38.363°2025-07-02 07:34:58.306Z358.738° N
|